Tracking 18844 objects as of 21-Nov-2017
HD Live streaming from Space Station
objects crossing your sky now

FENGYUN 1C DEB

Track FENGYUN 1C DEB now!
10-day predictions


NORAD ID: 30134
Int'l Code: 1999-025SP
Perigee: 854.3 km
Apogee: 882.9 km
Inclination: 99.0 °
Period: 102.2 minutes
Semi major axis: 7239 km
RCS: 0.049 m2 (small)
Launch date: May 10, 1999
Source: People's Republic of China (PRC)
Launch site: Taiyaun Space Center, China (TSC)

Note: This is SATELLITE DEBRIS
aabbcc
Your satellite tracking list
Your tracking list is empty




NASA's NSSDC Master Catalog

Two Line Element Set (TLE):
1 30134U 99025SP  17324.73471941 +.00000346 +00000-0 +22358-3 0  9995
2 30134 098.9915 351.3925 0019790 221.2591 202.2726 14.09395109557436
Source of the keplerian elements: AFSPC